Port Austin, MI

3:53 AM EST on February 21, 2017 (GMT -0500)
Port Hope

Weather History for KP58 - November, 2012

Change the Weather History Date:

Sunday, November 18, 2012

  Actual Average Record
Temperature  
Mean Temperature 40 °F -  
Max Temperature 45 °F 43 °F 66 °F (2016)
Min Temperature 36 °F 33 °F 17 °F (2014)
Degree Days  
Heating Degree Days 24    
Moisture  
Dew Point 37 °F    
Average Humidity 89    
Maximum Humidity 96    
Minimum Humidity 82    
Precipitation  
Precipitation 0.00 in - - ()
Sea Level Pressure  
Sea Level Pressure 30.51 in    
Wind  
Wind Speed 4 mph (SSE)    
Max Wind Speed 12 mph    
Max Gust Speed -    
Averages and records for this station are not official NWS values.
T = Trace of Precipitation, MM = Missing Value Source: NWS Daily Summary

Daily Weather History Graph

Daily Weather History Graph

Search for Another Location

Airport or City:

Trip Planner

Search our weather history database for the weather conditions in past years. The results will help you decide how hot, cold, wet, or windy it might be!

Date:

Astronomy

Nov. 18, 2012 Rise Set
Actual Time 7:30 AM EST 5:01 PM EST
Civil Twilight 6:59 AM EST 5:33 PM EST
Nautical Twilight 6:24 AM EST 6:08 PM EST
Astronomical Twilight 5:49 AM EST 6:42 PM EST
Moon 11:54 AM EST (11/18) 10:23 PM EST (11/18)
Length of Visible Light 10h 33m
Length of Day
9h 31m
Waxing Crescent, 30% of the Moon is Illuminated
Nov 18
Waxing Crescent
Nov 20
First Quarter
Nov 28
Full
Dec 6
Last Quarter
Dec 13
New

Hourly Weather History & Observations

Time (EST) Temp. Windchill Dew Point Humidity Pressure Visibility Wind Dir Wind Speed Gust Speed Precip Events Conditions
12:51 AM 39.0 °F - 34.0 °F 82% 30.56 in - Calm Calm - N/A   Unknown
1:51 AM 36.0 °F 33.3 °F 33.1 °F 89% 30.56 in - SSW 3.5 mph - N/A   Unknown
2:51 AM 39.0 °F 35.7 °F 35.1 °F 86% 30.56 in - Variable 4.6 mph - N/A   Unknown
3:51 AM 39.0 °F 36.8 °F 35.1 °F 86% 30.54 in - South 3.5 mph - N/A   Unknown
4:51 AM 39.9 °F 36.7 °F 36.0 °F 86% 30.54 in - South 4.6 mph - N/A   Unknown
5:51 AM 39.9 °F 36.7 °F 37.0 °F 89% 30.54 in - South 4.6 mph - N/A   Unknown
6:51 AM 39.9 °F 35.8 °F 37.0 °F 89% 30.55 in - South 5.8 mph - N/A   Unknown
7:51 AM 39.9 °F 36.7 °F 37.9 °F 93% 30.55 in - South 4.6 mph - N/A   Unknown
8:51 AM 41.0 °F 36.4 °F 39.0 °F 93% 30.56 in - South 6.9 mph - N/A   Unknown
9:51 AM 42.1 °F 38.4 °F 39.0 °F 89% 30.55 in - SSE 5.8 mph - N/A   Unknown
10:51 AM 44.1 °F 40.8 °F 39.9 °F 85% 30.55 in - SSE 5.8 mph - N/A   Unknown
11:51 AM 45.0 °F - 39.9 °F 82% 30.54 in - Calm Calm - N/A   Unknown
12:51 PM 44.1 °F 39.5 °F 39.9 °F 85% 30.52 in - ESE 8.1 mph - N/A   Unknown
1:51 PM 43.0 °F 37.7 °F 39.9 °F 89% 30.51 in - ESE 9.2 mph - N/A   Unknown
2:51 PM 44.1 °F 38.1 °F 39.9 °F 85% 30.48 in - ESE 11.5 mph - N/A   Unknown
3:51 PM 44.1 °F 38.6 °F 39.9 °F 85% 30.48 in - ESE 10.4 mph - N/A   Unknown
4:51 PM 44.1 °F 42.5 °F 39.0 °F 82% 30.48 in - SSE 3.5 mph - N/A   Unknown
5:51 PM 39.9 °F 37.8 °F 37.0 °F 89% 30.48 in - SE 3.5 mph - N/A   Unknown
6:51 PM 37.9 °F - 36.0 °F 93% 30.48 in - Calm Calm - N/A   Unknown
7:51 PM 36.0 °F - 34.0 °F 93% 30.48 in - Calm Calm - N/A   Unknown
8:51 PM 37.0 °F - 36.0 °F 96% 30.47 in - Calm Calm - N/A   Unknown
9:51 PM 37.9 °F - 36.0 °F 93% 30.45 in - Calm Calm - N/A   Unknown
10:51 PM 39.0 °F 36.8 °F 37.0 °F 93% 30.45 in - South 3.5 mph - N/A   Unknown
11:51 PM 37.9 °F 35.5 °F 36.0 °F 93% 30.45 in - SSE 3.5 mph - N/A   Unknown